Tracking 32139 objects as of 17-Nov-2025
HD Live streaming from Space Station
objects crossing your sky now

STARLINK-34923

Track STARLINK-34923 now!
10-day predictions
STARLINK-34923 is classified as:


NORAD ID: 65247
Int'l Code: 2025-179N
Perigee: 555.7 km
Apogee: 557.4 km
Inclination: 97.6 °
Period: 95.6 minutes
Semi major axis: 6927 km
RCS: Unknown
Launch date: August 18, 2025
Source: United States (US)
Launch site: AIR FORCE WESTERN TEST RANGE (AFWTR)
Your satellite tracking list
Your tracking list is empty




NASA's NSSDC Master Catalog

Two Line Element Set (TLE):
1 65247U 25179N   25320.57557060  .00006682  00000-0  46662-3 0  9994
2 65247  97.6056   1.3950 0001218 108.6133 251.5227 15.05671875 14847
Source of the keplerian elements: AFSPC